Location: Exeidioux
(45.6312°N, 1.6819°E)
Time: 14:30:12
(UTC+00:00)

Cosmos 1470 Rocket - Pass Details

Date: 03 March 2021
Orbit: 603 x 634 km, 82.5° (Epoch: 15 April)

Event Time Altitude Azimuth Distance (km) Brightness Sun altitude
Rises 18:34:37 0° 179° (S) 2,916 7.0 -9.8°
Reaches altitude 10° 18:36:52 10° 176° (S) 2,012 6.1 -10.2°
Maximum altitude 18:41:17 64° 95° (E) 704 3.6 -11.0°
Drops below altitude 10° 18:45:42 10° 15° (NNE) 2,015 6.1 -11.7°
Sets 18:47:57 0° 12° (NNE) 2,923 6.9 -12.1°
